CW6688 Weather Reports


Display with metric or nautical units.
time (UTC)temp
F
wind
direction
speed
MPH
gust
MPH
rain 1hr
in
rain 24hr
in
rain mn
in
humidity
%
barometer
mb
20260904095350 50 121 0.0 0.0 0.01 0.17 0.04 92 1011.0
20260904094332 50 121 0.0 0.0 0.01 0.17 0.04 92 1010.9
20260904093347 50 121 0.0 0.0 0.01 0.17 0.04 92 1010.9
20260904092325 50 121 0.0 0.0 0.02 0.17 0.04 92 1010.9
20260904091338 51 121 0.0 0.0 0.01 0.16 0.03 92 1010.9
20260904090350 51 121 0.0 0.0 0.01 0.16 0.03 92 1011.0
20260904085336 51 121 0.0 0.0 0.01 0.16 0.03 92 1010.9
20260904084411 51 121 0.0 0.0 0.02 0.16 0.03 92 1011.0
20260904083334 51 121 0.0 0.0 0.02 0.16 0.03 92 1011.0
20260904082342 51 121 0.0 0.0 0.01 0.15 0.02 92 1010.9
20260904081326 51 121 0.0 0.0 0.02 0.15 0.02 92 1010.9
20260904080355 51 121 0.0 0.0 0.02 0.15 0.02 92 1010.8
20260904075405 51 273 0.0 0.0 0.03 0.15 0.02 92 1010.6
20260904074336 52 273 0.0 0.0 0.02 0.14 0.01 92 1010.4
20260904073348 52 273 0.0 0.0 0.02 0.14 0.01 92 1010.7
20260904072333 52 273 0.0 0.0 0.03 0.14 0.01 92 1010.9
20260904071342 52 273 0.0 0.0 0.02 0.13 0.13 92 1010.8
20260904070325 52 273 0.0 0.0 0.03 0.13 0.13 92 1011.0
20260904065328 53 273 0.0 0.0 0.02 0.12 0.12 92 1010.9
20260904064343 53 273 0.0 0.0 0.03 0.12 0.12 92 1010.9
20260904063354 53 273 0.0 0.0 0.03 0.12 0.12 92 1011.0
20260904062345 53 273 0.0 0.0 0.02 0.11 0.11 92 1011.0
20260904061331 53 273 0.0 0.0 0.03 0.11 0.11 91 1010.9
20260904060341 54 273 0.0 0.0 0.02 0.10 0.10 91 1010.9
20260904055349 54 273 0.0 0.0 0.02 0.10 0.10 91 1010.9
20260904054334 54 273 0.0 0.0 0.01 0.09 0.09 91 1010.7
20260904053344 55 274 0.0 0.0 0.01 0.09 0.09 90 1010.7
20260904052328 55 274 0.0 0.0 0.01 0.09 0.09 90 1010.8
20260904051400 55 274 0.0 0.0 0.00 0.08 0.08 90 1010.7
20260904050412 55 274 0.0 0.0 0.00 0.08 0.08 90 1010.8
20260904045336 55 274 0.0 0.0 0.00 0.08 0.08 90 1010.7
20260904044330 55 274 0.0 0.0 0.00 0.08 0.08 89 1010.8
20260904043345 55 274 0.0 0.0 0.00 0.08 0.08 89 1010.9
20260904042326 55 274 0.0 0.0 0.00 0.08 0.08 88 1010.8
20260904041352 55 274 0.0 0.0 0.00 0.08 0.08 87 1010.8
20260904040335 55 274 0.0 0.0 0.00 0.08 0.08 87 1010.8
20260904035346 55 274 0.0 0.0 0.00 0.08 0.08 86 1010.9
20260904034327 55 274 0.0 0.0 0.00 0.08 0.08 86 1010.6
20260904033341 56 274 0.0 0.0 0.00 0.08 0.08 85 1010.5
20260904032335 56 274 0.0 0.0 0.00 0.08 0.08 85 1010.4
20260904031409 56 274 0.0 0.0 0.00 0.08 0.08 84 1010.4
20260904030326 57 274 0.0 0.0 0.00 0.08 0.08 83 1010.4
20260904025351 57 274 0.0 0.0 0.00 0.08 0.08 83 1010.4
20260904024335 57 274 0.0 0.0 0.00 0.08 0.08 82 1010.2
20260904023330 57 274 0.0 0.0 0.00 0.08 0.08 82 1010.4
20260904022343 57 274 0.0 0.0 0.00 0.08 0.08 82 1010.3
20260904021333 57 274 0.0 0.0 0.00 0.08 0.08 81 1010.3
20260904020326 57 274 0.0 0.0 0.00 0.08 0.08 81 1010.3
20260904015342 57 274 0.0 0.0 0.00 0.08 0.08 79 1010.3
20260904014328 57 273 0.0 0.0 0.00 0.08 0.08 78 1010.1
20260904013336 57 258 0.0 0.0 0.00 0.08 0.08 77 1010.2
20260904012329 58 246 0.0 0.0 0.00 0.08 0.08 75 1010.4
20260904011342 58 212 0.0 0.0 0.00 0.14 0.08 74 1010.5
20260904010352 58 212 0.0 10.0 0.00 0.14 0.08 73 1010.4
20260904005335 60 227 0.0 10.0 0.00 0.14 0.08 75 1010.4
20260904004345 62 127 0.0 0.0 0.00 0.14 0.08 77 1010.1
20260904003341 63 60 0.0 0.0 0.00 0.14 0.08 75 1009.9
20260904002333 64 60 0.0 0.0 0.00 0.14 0.08 73 1009.6
20260904001339 65 11 0.0 1.0 0.00 0.14 0.08 71 1009.5
20260904000334 65 104 0.0 0.0 0.00 0.14 0.08 68 1009.6
20260903235343 65 238 0.0 0.0 0.00 0.14 0.08 72 1009.5
20260903234326 64 240 0.0 0.0 0.00 0.14 0.08 76 1009.5
20260903233338 63 244 0.0 0.0 0.00 0.14 0.08 77 1009.7
20260903232330 63 244 0.0 0.0 0.00 0.14 0.08 75 1009.7
20260903231344 64 244 0.0 0.0 0.00 0.22 0.08 72 1009.7
20260903230336 64 243 0.0 0.0 0.00 0.22 0.08 73 1009.7
20260903225347 64 244 0.0 3.0 0.00 0.22 0.08 74 1009.8
20260903224339 64 240 0.0 0.0 0.01 0.22 0.08 77 1009.8
20260903223350 64 240 0.0 0.0 0.01 0.22 0.08 77 1009.8
20260903222334 63 239 0.0 0.0 0.01 0.22 0.08 81 1009.8
20260903221326 63 239 0.0 0.0 0.01 0.30 0.08 79 1009.7
20260903220341 63 239 0.0 0.0 0.01 0.30 0.08 78 1009.9
20260903215335 63 239 0.0 0.0 0.01 0.30 0.08 76 1010.0
20260903214325 64 239 0.0 0.0 0.00 0.29 0.07 69 1009.9
20260903213357 65 240 0.0 1.0 0.00 0.29 0.07 64 1009.9
20260903212327 65 254 0.0 0.0 0.00 0.29 0.07 65 1009.9
20260903211340 65 257 0.0 0.0 0.00 0.30 0.07 66 1009.9
20260903210324 64 257 0.0 7.0 0.00 0.30 0.07 68 1009.8
20260903205352 65 247 0.0 5.0 0.00 0.30 0.07 67 1009.8
20260903204343 64 269 0.0 0.0 0.00 0.30 0.07 70 1009.6
20260903203336 63 269 0.0 0.0 0.00 0.30 0.07 69 1009.7
20260903202346 64 273 0.0 1.0 0.00 0.30 0.07 67 1009.6
20260903201337 65 283 0.0 0.0 0.00 0.33 0.07 65 1009.6
20260903200350 63 282 0.0 2.0 0.00 0.33 0.07 69 1009.7
20260903195333 63 265 0.0 0.0 0.00 0.33 0.07 68 1009.7
20260903194325 64 248 0.0 0.0 0.00 0.33 0.07 68 1009.7
20260903193336 63 253 0.0 0.0 0.00 0.33 0.07 69 1009.6
20260903192327 63 255 0.0 0.0 0.00 0.33 0.07 71 1009.6
20260903191338 62 213 0.0 0.0 0.00 0.33 0.07 72 1009.7
20260903190326 62 237 0.0 0.0 0.00 0.33 0.07 74 1009.6
20260903185351 61 237 0.0 0.0 0.00 0.33 0.07 77 1009.6
20260903184403 60 237 0.0 0.0 0.00 0.33 0.07 77 1009.6
20260903183333 60 229 0.0 0.0 0.00 0.33 0.07 78 1009.6
20260903182325 60 127 0.0 0.0 0.00 0.33 0.07 81 1009.5
20260903181336 60 127 0.0 0.0 0.00 0.33 0.07 85 1009.6
20260903180346 59 127 0.0 0.0 0.00 0.33 0.07 86 1009.6
20260903175336 58 127 0.0 0.0 0.00 0.33 0.07 88 1009.6
20260903174346 58 104 0.0 0.0 0.00 0.33 0.07 89 1009.6
20260903173326 58 104 0.0 0.0 0.00 0.33 0.07 91 1009.5
20260903172354 57 104 0.0 0.0 0.00 0.33 0.07 91 1009.3
20260903171404 56 104 0.0 0.0 0.00 0.33 0.07 92 1009.2
20260903170335 55 104 0.0 0.0 0.00 0.33 0.07 92 1009.2
20260903165326 54 104 0.0 0.0 0.00 0.33 0.07 92 1009.3
20260903164336 53 104 0.0 0.0 0.00 0.33 0.07 92 1009.2
20260903163327 52 104 0.0 0.0 0.00 0.33 0.07 92 1009.3
20260903162329 52 104 0.0 0.0 0.00 0.33 0.07 93 1009.3
20260903161340 52 104 0.0 0.0 0.00 0.33 0.07 93 1009.2
20260903160331 51 104 0.0 0.0 0.00 0.33 0.07 93 1009.2
20260903155342 51 104 0.0 0.0 0.00 0.33 0.07 93 1009.2
20260903154354 50 104 0.0 0.0 0.00 0.33 0.07 93 1009.2
20260903153344 50 104 0.0 0.0 0.00 0.33 0.07 93 1009.2
20260903152331 50 104 0.0 0.0 0.00 0.33 0.07 93 1009.2
20260903151404 50 104 0.0 0.0 0.01 0.34 0.07 93 1009.2
20260903150330 50 104 0.0 0.0 0.01 0.34 0.07 93 1009.2
20260903145342 50 104 0.0 0.0 0.02 0.34 0.07 93 1009.3
20260903144352 50 104 0.0 0.0 0.03 0.34 0.07 93 1009.2
20260903143334 49 104 0.0 0.0 0.03 0.34 0.07 93 1009.2
20260903142344 49 104 0.0 0.0 0.04 0.34 0.07 93 1009.2
20260903141335 49 104 0.0 0.0 0.03 0.33 0.06 93 1009.1
20260903140346 49 104 0.0 0.0 0.04 0.33 0.06 93 1009.1
20260903135327 49 104 0.0 0.0 0.03 0.32 0.05 93 1009.1
20260903134337 49 104 0.0 0.0 0.03 0.31 0.04 93 1009.0
20260903133328 49 104 0.0 0.0 0.03 0.31 0.04 93 1008.9
20260903132337 49 104 0.0 0.0 0.02 0.30 0.03 93 1008.8
20260903131330 49 104 0.0 0.0 0.02 0.30 0.03 93 1008.8
20260903130342 49 104 0.0 0.0 0.01 0.29 0.02 93 1008.7
20260903125354 49 104 0.0 0.0 0.01 0.29 0.02 93 1008.7
20260903124343 49 104 0.0 0.0 0.00 0.28 0.01 93 1008.6
20260903123326 49 104 0.0 0.0 0.00 0.28 0.01 93 1008.5
20260903122400 49 104 0.0 0.0 0.00 0.28 0.01 93 1008.5
20260903121351 49 104 0.0 0.0 0.00 0.28 0.01 93 1008.4
20260903120335 49 104 0.0 0.0 0.00 0.28 0.01 93 1008.3
20260903115329 49 104 0.0 0.0 0.00 0.28 0.01 93 1008.3
20260903114344 49 104 0.0 0.0 0.00 0.28 0.01 93 1008.1
20260903113328 49 104 0.0 0.0 0.01 0.28 0.01 93 1008.1
20260903112339 49 104 0.0 0.0 0.01 0.28 0.01 93 1008.4
20260903111350 49 104 0.0 0.0 0.01 0.28 0.01 93 1008.5
20260903110333 49 104 0.0 0.0 0.01 0.28 0.01 93 1008.2
20260903105342 50 104 0.0 0.0 0.01 0.28 0.01 93 1008.2
20260903104326 49 104 0.0 0.0 0.01 0.28 0.01 93 1008.1
20260903103342 49 104 0.0 0.0 0.00 0.27 0.00 93 1008.1
20260903102357 49 104 0.0 0.0 0.00 0.27 0.00 93 1008.1
20260903101330 49 104 0.0 0.0 0.00 0.27 0.00 92 1008.0
20260903100342 50 104 0.0 0.0 0.00 0.27 0.00 92 1008.1